This is the latest recevied weather packets stored in our database for station/object KE9DBJ-13. If no packets are shown the sender has not sent any weather packets the latest 10 day(s).
| Time | Temp. | Humidity | Pressure | Rain* | Wind** | Luminosity | Snow |
|---|---|---|---|---|---|---|---|
| 1788415203 | 22.78° C | 92% | 1015.5 hPa | 0 mm | - | - | - |
| 1788414603 | 22.78° C | 92% | 1015.5 hPa | 0 mm | - | - | - |
| 1788414003 | 22.78° C | 92% | 1015.5 hPa | 0 mm | - | - | - |
| 1788413403 | 22.78° C | 92% | 1015.5 hPa | 0 mm | - | - | - |
| 1788412803 | 22.78° C | 92% | 1015.5 hPa | 0 mm | - | - | - |
| 1788412202 | 22.78° C | 92% | 1015.5 hPa | 0 mm | - | - | - |
| 1788411602 | 22.78° C | 92% | 1015.4 hPa | 0 mm | - | - | - |
| 1788411002 | 23.33° C | 92% | 1015.4 hPa | 0 mm | - | - | - |
| 1788410402 | 23.33° C | 92% | 1015.2 hPa | 0 mm | - | - | - |
| 1788409802 | 23.33° C | 92% | 1015.3 hPa | 0 mm | - | - | - |
| 1788409202 | 23.33° C | 92% | 1015.4 hPa | 0 mm | - | - | - |
| 1788408602 | 23.33° C | 92% | 1015.4 hPa | 0 mm | - | - | - |
| 1788408003 | 23.33° C | 92% | 1015.4 hPa | 0 mm | - | - | - |
| 1788407403 | 23.33° C | 92% | 1015.4 hPa | 0 mm | - | - | - |
| 1788406803 | 23.89° C | 92% | 1015.5 hPa | 0 mm | - | - | - |
| 1788406203 | 23.89° C | 91% | 1015.5 hPa | 0 mm | - | - | - |
| 1788405603 | 23.89° C | 91% | 1015.5 hPa | 0 mm | - | - | - |
| 1788405003 | 23.89° C | 91% | 1015.5 hPa | 0 mm | - | - | - |
| 1788404403 | 23.89° C | 91% | 1015.7 hPa | 0 mm | - | - | - |
| 1788403803 | 23.89° C | 91% | 1015.5 hPa | 0 mm | - | - | - |
| 1788403203 | 23.89° C | 91% | 1015.6 hPa | 0 mm | - | - | - |
| 1788402603 | 24.44° C | 91% | 1015.6 hPa | 0 mm | - | - | - |
| 1788377405 | 36.67° C | 49% | 1015.5 hPa | 0 mm | - | - | - |
| 1788376803 | 37.22° C | 51% | 1015.5 hPa | 0 mm | - | - | - |
| 1788376203 | 36.67° C | 51% | 1015.6 hPa | 0 mm | - | - | - |
* Rain latest hour (hover to see other rain measurements)
** Current wind speed in m/s (hover to see current wind gust speed)